contact:dominique.lefevre@mio.osupytheas.fr, maurice.libes@osupytheas.fr, didier.mallarino@osupytheas.fr
Project:EMSO http://www.emso-fr.org/EMSO-France
Depth: 2436.0 m
Title:EMSO Ligure Ouest : Data MII capteur AQUADOPP
Date,Latitude,Longitude,X_East,Y_North,Z_Up,Amplitude_X,Amplitude_Y,Amplitude_Z,Batterie,SoundSpeed,Heading,Pitch,Roll,Pressure,TIS,Speed,Direction
, degrees North, degrees East, m.s-1, m.s-1,m.s-1, 1, 1, 1, Volt, m.s-1, degree, degree, degree, dbar, degree_C, m.s-1, degree
2019-11-01T00:04:04,42.805,6.029,-0.003,0.023,-0.003,102.0,105.0,98.0,13.4,1505.1,325.7,-0.8,1.8,2470.521,13.27,0.023,352.6
2019-11-01T00:07:05,42.805,6.029,-0.042,0.012,-0.023,101.0,106.0,98.0,13.3,1505.2,325.6,-0.8,1.9,2470.41,13.29,0.043,285.9
2019-11-01T00:10:06,42.805,6.029,-0.033,0.031,-0.057,99.0,105.0,98.0,13.3,1505.2,326.6,-0.7,1.8,2470.277,13.3,0.045,313.2
2019-11-01T00:13:07,42.805,6.029,-0.031,0.018,-0.029,100.0,104.0,99.0,13.4,1505.3,323.7,-0.7,1.8,2470.147,13.31,0.035,300.1
2019-11-01T00:16:08,42.805,6.029,-0.023,0.001,-0.021,102.0,103.0,98.0,13.4,1505.3,326.8,-0.7,1.8,2470.064,13.32,0.023,272.5
2019-11-01T00:19:09,42.805,6.029,-0.016,0.002,-0.018,100.0,105.0,97.0,13.4,1505.3,326.0,-0.7,1.9,2470.021,13.32,0.016,277.1
2019-11-01T00:22:10,42.805,6.029,-0.034,-0.004,-0.048,101.0,103.0,98.0,13.4,1505.3,325.2,-0.7,1.8,2469.924,13.33,0.034,263.3
2019-11-01T00:25:11,42.805,6.029,-0.031,-0.008,-0.064,100.0,104.0,98.0,13.3,1505.3,326.8,-0.7,1.8,2469.924,13.33,0.032,255.5
2019-11-01T00:28:12,42.805,6.029,-0.03,0.012,-0.035,100.0,103.0,99.0,13.4,1505.3,326.1,-0.7,1.8,2469.892,13.33,0.032,291.8
2019-11-01T00:31:13,42.805,6.029,0.004,0.011,0.03,101.0,104.0,99.0,13.4,1505.3,326.6,-0.7,1.8,2469.886,13.33,0.011,20.0
2019-11-01T00:34:14,42.805,6.029,-0.015,0.019,-0.022,100.0,105.0,99.0,13.4,1505.3,325.4,-0.7,1.8,2469.84,13.33,0.024,321.7
2019-11-01T00:37:15,42.805,6.029,-0.007,0.001,-0.011,102.0,105.0,99.0,13.3,1505.3,323.1,-0.7,1.8,2469.845,13.33,0.007,278.1
2019-11-01T00:40:16,42.805,6.029,-0.021,0.012,0.0,101.0,105.0,99.0,13.4,1505.3,326.6,-0.8,1.8,2469.847,13.33,0.024,299.7
2019-11-01T00:43:17,42.805,6.029,0.005,0.017,-0.033,101.0,105.0,98.0,13.4,1505.3,324.7,-0.7,1.8,2469.891,13.33,0.017,16.4
2019-11-01T00:46:18,42.805,6.029,-0.006,0.005,-0.044,102.0,104.0,99.0,13.4,1505.3,324.5,-0.7,1.8,2469.841,13.33,0.007,309.8
2019-11-01T00:49:19,42.805,6.029,-0.005,0.011,-0.005,101.0,104.0,98.0,13.3,1505.3,327.4,-0.7,1.8,2469.898,13.33,0.012,335.6
2019-11-01T00:52:20,42.805,6.029,-0.013,0.014,0.017,101.0,103.0,99.0,13.3,1505.3,325.0,-0.7,1.9,2469.874,13.33,0.019,317.1
2019-11-01T00:55:21,42.805,6.029,-0.002,0.013,0.023,101.0,103.0,98.0,13.4,1505.3,323.6,-0.7,1.8,2469.85,13.33,0.013,351.3
2019-11-01T00:58:22,42.805,6.029,0.013,0.013,-0.009,101.0,103.0,98.0,13.4,1505.3,325.1,-0.7,1.8,2469.854,13.33,0.018,45.0
2019-11-01T01:01:23,42.805,6.029,-0.012,0.011,-0.042,101.0,103.0,98.0,13.4,1505.3,324.6,-0.7,1.8,2469.872,13.33,0.016,312.5
2019-11-01T01:04:24,42.805,6.029,0.011,0.023,0.0,102.0,104.0,100.0,13.4,1505.3,325.3,-0.7,1.8,2469.864,13.33,0.025,25.6
2019-11-01T01:07:25,42.805,6.029,0.008,0.002,-0.024,100.0,104.0,99.0,13.4,1505.3,323.5,-0.7,1.8,2469.845,13.33,0.008,76.0
2019-11-01T01:10:26,42.805,6.029,0.005,-0.004,0.019,100.0,104.0,99.0,13.4,1505.3,325.0,-0.7,1.8,2469.873,13.33,0.006,128.7
2019-11-01T01:13:27,42.805,6.029,-0.023,0.006,-0.017,101.0,104.0,98.0,13.4,1505.3,326.5,-0.7,1.8,2469.909,13.33,0.023,284.6
2019-11-01T01:16:28,42.805,6.029,-0.018,0.01,-0.007,99.0,103.0,100.0,13.3,1505.3,325.2,-0.7,1.9,2469.896,13.33,0.02,299.1
2019-11-01T01:19:29,42.805,6.029,-0.024,0.013,-0.028,101.0,103.0,99.0,13.4,1505.3,324.4,-0.7,1.8,2469.897,13.33,0.027,298.4
2019-11-01T01:22:30,42.805,6.029,0.017,0.03,0.022,101.0,104.0,98.0,13.4,1505.3,325.6,-0.7,1.9,2469.916,13.33,0.034,29.5
2019-11-01T01:25:31,42.805,6.029,0.0,0.002,-0.008,99.0,107.0,98.0,13.4,1505.3,324.6,-0.7,1.8,2469.903,13.33,0.002,0.0
2019-11-01T01:28:32,42.805,6.029,0.023,0.002,0.001,100.0,106.0,97.0,13.3,1505.3,325.9,-0.7,1.9,2469.96,13.33,0.023,85.0
2019-11-01T01:31:33,42.805,6.029,0.027,0.002,-0.004,101.0,104.0,98.0,13.4,1505.3,325.3,-0.7,1.8,2469.867,13.33,0.027,85.8
2019-11-01T01:34:34,42.805,6.029,0.011,-0.006,-0.019,101.0,105.0,98.0,13.3,1505.3,325.9,-0.7,1.8,2469.919,13.33,0.012,118.6
2019-11-01T01:37:35,42.805,6.029,0.002,0.011,0.009,101.0,104.0,99.0,13.4,1505.3,325.0,-0.7,1.9,2469.914,13.33,0.011,10.3
2019-11-01T01:40:36,42.805,6.029,-0.012,0.011,-0.004,101.0,103.0,99.0,13.3,1505.3,324.8,-0.7,1.8,2469.89,13.33,0.016,312.5
2019-11-01T01:43:37,42.805,6.029,0.019,0.005,-0.004,101.0,104.0,98.0,13.4,1505.3,326.7,-0.7,1.8,2469.918,13.33,0.019,75.3
2019-11-01T01:46:38,42.805,6.029,0.017,0.008,-0.001,100.0,105.0,98.0,13.3,1505.3,324.0,-0.7,1.8,2469.891,13.33,0.018,64.8
2019-11-01T01:49:39,42.805,6.029,-0.003,0.013,-0.023,101.0,104.0,99.0,13.4,1505.3,325.9,-0.7,1.8,2469.883,13.33,0.013,347.0
2019-11-01T01:52:40,42.805,6.029,-0.012,0.01,-0.001,100.0,104.0,99.0,13.4,1505.3,325.7,-0.7,1.9,2469.913,13.33,0.015,309.8
2019-11-01T01:55:41,42.805,6.029,-0.002,0.022,-0.004,100.0,104.0,99.0,13.3,1505.3,323.9,-0.7,1.8,2469.873,13.33,0.022,354.8
2019-11-01T01:58:42,42.805,6.029,-0.007,0.015,-0.017,102.0,103.0,98.0,13.4,1505.3,326.5,-0.7,1.9,2469.911,13.33,0.016,335.0
2019-11-01T02:01:43,42.805,6.029,-0.028,0.016,-0.021,101.0,105.0,98.0,13.3,1505.3,327.6,-0.7,1.8,2469.936,13.33,0.032,299.7
2019-11-01T02:04:44,42.805,6.029,0.007,0.003,0.009,101.0,103.0,98.0,13.4,1505.3,328.4,-0.7,1.8,2469.874,13.33,0.007,66.8
2019-11-01T02:07:45,42.805,6.029,-0.001,0.021,-0.022,102.0,103.0,98.0,13.4,1505.3,328.0,-0.7,1.8,2469.887,13.33,0.021,357.3
2019-11-01T02:10:46,42.805,6.029,-0.015,0.036,0.016,101.0,105.0,98.0,13.4,1505.3,326.7,-0.7,1.8,2469.914,13.33,0.039,337.4
2019-11-01T02:13:47,42.805,6.029,0.008,0.003,0.008,101.0,105.0,98.0,13.4,1505.3,325.0,-0.7,1.8,2469.86,13.33,0.008,69.4
2019-11-01T02:16:48,42.805,6.029,-0.027,0.012,-0.02,98.0,108.0,99.0,13.4,1505.3,326.8,-0.7,1.8,2469.922,13.33,0.029,294.0
2019-11-01T02:19:49,42.805,6.029,-0.002,0.027,0.011,101.0,106.0,99.0,13.3,1505.3,325.2,-0.7,1.8,2469.882,13.33,0.027,355.8
2019-11-01T02:22:50,42.805,6.029,-0.011,0.014,-0.023,101.0,106.0,98.0,13.4,1505.3,324.5,-0.7,1.8,2469.919,13.33,0.017,321.8
2019-11-01T02:25:51,42.805,6.029,-0.026,0.031,-0.006,101.0,106.0,99.0,13.3,1505.3,323.2,-0.7,1.9,2469.929,13.33,0.04,320.0
2019-11-01T02:28:52,42.805,6.029,-0.024,0.012,-0.032,102.0,108.0,99.0,13.4,1505.3,326.3,-0.7,1.8,2469.903,13.33,0.026,296.6
2019-11-01T02:31:53,42.805,6.029,-0.016,0.025,-0.012,101.0,105.0,98.0,13.4,1505.3,324.9,-0.7,1.8,2469.906,13.33,0.029,327.4
2019-11-01T02:34:54,42.805,6.029,0.003,0.026,-0.025,101.0,104.0,98.0,13.4,1505.3,327.4,-0.7,1.9,2469.883,13.33,0.026,6.6
2019-11-01T02:37:55,42.805,6.029,-0.042,0.011,-0.043,101.0,106.0,99.0,13.4,1505.3,323.4,-0.7,1.8,2469.889,13.33,0.043,284.7
2019-11-01T02:40:56,42.805,6.029,-0.028,0.017,0.01,101.0,105.0,99.0,13.4,1505.3,326.9,-0.8,1.8,2469.909,13.33,0.032,301.3
2019-11-01T02:43:57,42.805,6.029,-0.023,0.009,0.004,100.0,106.0,100.0,13.4,1505.3,327.3,-0.7,1.9,2469.899,13.33,0.024,291.4
2019-11-01T02:46:58,42.805,6.029,-0.017,0.011,-0.03,101.0,106.0,98.0,13.4,1505.3,327.1,-0.7,1.8,2469.872,13.33,0.02,302.9
2019-11-01T02:49:59,42.805,6.029,-0.017,0.023,-0.035,100.0,104.0,100.0,13.4,1505.3,325.0,-0.7,1.9,2469.885,13.33,0.028,323.5
2019-11-01T02:53:00,42.805,6.029,-0.014,0.013,-0.021,100.0,105.0,98.0,13.4,1505.3,323.7,-0.7,1.8,2469.918,13.33,0.019,312.9
2019-11-01T02:56:01,42.805,6.029,-0.021,0.025,-0.028,100.0,105.0,98.0,13.4,1505.3,325.7,-0.7,1.8,2469.919,13.33,0.032,320.0
2019-11-01T02:59:02,42.805,6.029,-0.035,0.021,-0.051,100.0,104.0,98.0,13.3,1505.3,324.9,-0.8,1.8,2469.914,13.33,0.04,301.0
2019-11-01T03:02:03,42.805,6.029,-0.014,0.022,-0.008,101.0,105.0,98.0,13.4,1505.3,323.1,-0.7,1.9,2469.891,13.33,0.026,327.5
2019-11-01T03:05:04,42.805,6.029,-0.009,0.002,-0.032,102.0,104.0,98.0,13.4,1505.3,323.9,-0.7,1.8,2469.882,13.33,0.009,282.5
2019-11-01T03:08:05,42.805,6.029,-0.033,0.018,-0.02,101.0,105.0,98.0,13.3,1505.3,325.8,-0.7,1.8,2469.844,13.33,0.037,298.6
2019-11-01T03:11:06,42.805,6.029,-0.035,0.016,-0.034,101.0,106.0,99.0,13.4,1505.3,325.9,-0.7,1.8,2469.945,13.33,0.038,294.6
2019-11-01T03:14:07,42.805,6.029,-0.002,0.028,-0.026,102.0,105.0,98.0,13.3,1505.3,325.9,-0.7,1.9,2469.887,13.33,0.028,355.9
2019-11-01T03:17:08,42.805,6.029,-0.026,0.007,-0.004,100.0,104.0,99.0,13.4,1505.3,328.3,-0.7,1.8,2469.883,13.33,0.026,285.1
2019-11-01T03:20:09,42.805,6.029,-0.012,0.015,0.008,101.0,103.0,99.0,13.4,1505.3,323.3,-0.7,1.9,2469.912,13.33,0.019,321.3
2019-11-01T03:23:10,42.805,6.029,-0.024,-0.009,-0.067,100.0,105.0,99.0,13.4,1505.3,326.9,-0.7,1.8,2469.89,13.33,0.025,249.4
2019-11-01T03:26:11,42.805,6.029,-0.037,0.004,-0.015,100.0,105.0,98.0,13.3,1505.3,325.2,-0.7,1.8,2469.917,13.33,0.037,276.2
2019-11-01T03:29:12,42.805,6.029,-0.034,0.027,0.001,99.0,105.0,99.0,13.3,1505.3,325.2,-0.7,1.9,2469.898,13.33,0.043,308.5
2019-11-01T03:32:13,42.805,6.029,0.0,0.011,-0.01,101.0,106.0,97.0,13.4,1505.3,328.4,-0.7,1.8,2469.857,13.33,0.011,0.0
2019-11-01T03:35:14,42.805,6.029,-0.049,0.025,-0.057,99.0,106.0,99.0,13.4,1505.3,328.2,-0.7,1.8,2469.865,13.33,0.055,297.0
2019-11-01T03:38:15,42.805,6.029,-0.035,0.018,-0.02,101.0,105.0,97.0,13.3,1505.3,324.8,-0.7,1.8,2469.939,13.33,0.039,297.2
2019-11-01T03:41:16,42.805,6.029,-0.01,0.01,-0.04,100.0,104.0,98.0,13.3,1505.3,326.9,-0.7,1.8,2469.882,13.33,0.014,315.0
2019-11-01T03:44:17,42.805,6.029,-0.041,0.013,-0.012,100.0,106.0,99.0,13.3,1505.3,325.5,-0.7,1.8,2469.898,13.33,0.043,287.6
2019-11-01T03:47:18,42.805,6.029,-0.033,0.005,-0.011,101.0,106.0,98.0,13.4,1505.3,323.4,-0.7,1.8,2469.935,13.33,0.033,278.6
2019-11-01T03:50:19,42.805,6.029,-0.036,0.022,-0.018,103.0,107.0,97.0,13.4,1505.3,325.8,-0.7,1.9,2469.898,13.33,0.042,301.4
2019-11-01T03:53:20,42.805,6.029,0.003,0.008,-0.015,102.0,105.0,98.0,13.4,1505.3,325.5,-0.7,1.8,2469.884,13.33,0.008,20.6
2019-11-01T03:56:21,42.805,6.029,0.036,0.026,0.021,101.0,104.0,99.0,13.4,1505.3,327.4,-0.7,1.9,2469.905,13.33,0.044,54.2
2019-11-01T03:59:22,42.805,6.029,-0.019,0.001,-0.037,102.0,103.0,99.0,13.4,1505.3,324.3,-0.7,1.8,2469.866,13.33,0.019,273.0
2019-11-01T04:02:23,42.805,6.029,-0.004,0.01,-0.04,101.0,106.0,98.0,13.4,1505.3,326.1,-0.7,1.8,2469.905,13.33,0.01,338.2
2019-11-01T04:05:24,42.805,6.029,-0.004,0.025,-0.034,102.0,105.0,99.0,13.4,1505.3,328.5,-0.7,1.8,2469.876,13.33,0.025,350.9
2019-11-01T04:08:25,42.805,6.029,-0.008,0.012,-0.014,100.0,104.0,98.0,13.4,1505.3,326.1,-0.7,1.8,2469.927,13.33,0.014,326.3
2019-11-01T04:11:26,42.805,6.029,-0.018,0.005,-0.016,101.0,106.0,98.0,13.3,1505.3,324.3,-0.7,1.8,2469.906,13.33,0.018,285.5
2019-11-01T04:14:27,42.805,6.029,-0.05,0.018,-0.068,101.0,106.0,99.0,13.4,1505.3,327.0,-0.7,1.8,2469.892,13.33,0.053,289.8
2019-11-01T04:17:28,42.805,6.029,-0.009,0.014,-0.033,101.0,105.0,99.0,13.3,1505.3,325.5,-0.7,1.9,2469.873,13.33,0.016,327.3
2019-11-01T04:20:29,42.805,6.029,-0.018,-0.001,-0.029,101.0,105.0,98.0,13.4,1505.3,324.3,-0.7,1.8,2469.897,13.33,0.018,266.8
2019-11-01T04:23:30,42.805,6.029,-0.022,0.019,-0.009,102.0,105.0,99.0,13.4,1505.3,324.1,-0.7,1.9,2469.903,13.33,0.029,310.8
2019-11-01T04:26:31,42.805,6.029,-0.003,0.012,-0.014,101.0,104.0,98.0,13.4,1505.3,324.2,-0.7,1.8,2469.938,13.33,0.012,346.0
2019-11-01T04:29:32,42.805,6.029,-0.007,0.011,-0.009,101.0,104.0,98.0,13.4,1505.3,325.7,-0.7,1.9,2469.9,13.33,0.013,327.5
2019-11-01T04:32:33,42.805,6.029,-0.024,-0.01,0.004,101.0,105.0,99.0,13.3,1505.3,324.5,-0.7,1.8,2469.89,13.33,0.026,247.4
2019-11-01T04:35:34,42.805,6.029,-0.012,0.018,-0.001,100.0,105.0,98.0,13.4,1505.3,326.6,-0.7,1.8,2469.877,13.33,0.021,326.3
2019-11-01T04:38:35,42.805,6.029,-0.04,-0.005,-0.053,101.0,104.0,98.0,13.3,1505.3,323.3,-0.7,1.8,2469.905,13.33,0.04,262.9
2019-11-01T04:41:36,42.805,6.029,0.015,0.015,0.012,102.0,105.0,99.0,13.4,1505.3,324.7,-0.7,1.8,2469.887,13.33,0.021,45.0
2019-11-01T04:44:37,42.805,6.029,0.007,0.015,-0.038,100.0,104.0,99.0,13.4,1505.3,326.5,-0.7,1.8,2469.867,13.33,0.016,25.0
2019-11-01T04:47:38,42.805,6.029,-0.009,0.012,-0.007,101.0,106.0,99.0,13.4,1505.3,324.9,-0.7,1.8,2469.896,13.33,0.015,323.1
2019-11-01T04:50:39,42.805,6.029,-0.05,0.013,-0.037,101.0,105.0,99.0,13.4,1505.3,325.9,-0.8,1.8,2469.921,13.33,0.051,284.6
2019-11-01T04:53:40,42.805,6.029,-0.037,0.011,-0.046,101.0,107.0,99.0,13.4,1505.3,324.4,-0.7,1.8,2469.902,13.33,0.038,286.6
2019-11-01T04:56:41,42.805,6.029,-0.007,0.018,-0.016,101.0,104.0,98.0,13.4,1505.3,327.2,-0.7,1.9,2469.911,13.33,0.019,338.8
2019-11-01T04:59:42,42.805,6.029,-0.053,0.019,-0.031,101.0,106.0,98.0,13.4,1505.3,327.2,-0.7,1.8,2469.915,13.33,0.056,289.7
2019-11-01T05:02:43,42.805,6.029,-0.01,0.008,-0.002,101.0,104.0,99.0,13.3,1505.3,325.0,-0.7,1.8,2469.875,13.33,0.012,308.7
2019-11-01T05:05:44,42.805,6.029,0.002,0.031,-0.003,102.0,104.0,99.0,13.3,1505.3,325.9,-0.7,1.8,2469.929,13.33,0.031,3.7
2019-11-01T05:08:45,42.805,6.029,-0.011,0.01,-0.022,102.0,105.0,98.0,13.4,1505.3,326.9,-0.7,1.8,2469.926,13.33,0.014,312.3
2019-11-01T05:11:46,42.805,6.029,0.001,0.027,0.008,100.0,105.0,99.0,13.4,1505.3,326.6,-0.7,1.8,2469.897,13.33,0.027,2.1
2019-11-01T05:14:47,42.805,6.029,-0.03,0.017,-0.019,101.0,104.0,99.0,13.4,1505.3,326.1,-0.7,1.8,2469.916,13.33,0.034,299.5
2019-11-01T05:17:48,42.805,6.029,-0.019,0.014,-0.009,101.0,105.0,98.0,13.4,1505.3,323.6,-0.7,1.8,2469.945,13.33,0.023,306.4
2019-11-01T05:20:49,42.805,6.029,-0.018,0.014,-0.008,101.0,105.0,98.0,13.4,1505.3,324.1,-0.7,1.8,2469.886,13.33,0.022,307.9
2019-11-01T05:23:50,42.805,6.029,-0.026,0.011,-0.007,101.0,106.0,98.0,13.4,1505.3,325.2,-0.7,1.8,2469.897,13.33,0.028,292.9
2019-11-01T05:26:51,42.805,6.029,-0.055,0.006,-0.049,100.0,109.0,97.0,13.4,1505.3,326.1,-0.7,1.8,2469.928,13.33,0.055,276.2
2019-11-01T05:29:52,42.805,6.029,-0.033,0.001,-0.041,101.0,106.0,99.0,13.4,1505.3,327.8,-0.7,1.8,2469.96,13.33,0.033,271.7
2019-11-01T05:32:53,42.805,6.029,-0.021,0.014,-0.003,102.0,105.0,99.0,13.4,1505.3,326.7,-0.7,1.8,2469.921,13.33,0.025,303.7
2019-11-01T05:35:54,42.805,6.029,0.007,0.0,0.011,100.0,104.0,98.0,13.4,1505.3,327.2,-0.7,1.8,2469.897,13.33,0.007,90.0
2019-11-01T05:38:55,42.805,6.029,-0.001,0.028,-0.027,101.0,104.0,98.0,13.4,1505.3,326.1,-0.7,1.9,2469.883,13.33,0.028,358.0
2019-11-01T05:41:56,42.805,6.029,0.02,0.023,0.019,101.0,104.0,99.0,13.3,1505.3,327.3,-0.7,1.8,2469.941,13.33,0.03,41.0
2019-11-01T05:44:57,42.805,6.029,-0.03,0.005,-0.03,101.0,104.0,99.0,13.4,1505.3,325.2,-0.7,1.9,2469.932,13.33,0.03,279.5
2019-11-01T05:47:58,42.805,6.029,-0.015,0.013,0.0,101.0,105.0,99.0,13.4,1505.3,327.9,-0.7,1.8,2469.958,13.33,0.019,310.9
2019-11-01T05:50:59,42.805,6.029,0.022,0.013,0.017,101.0,104.0,99.0,13.4,1505.3,327.2,-0.8,1.8,2469.951,13.33,0.025,59.4
2019-11-01T05:54:00,42.805,6.029,-0.033,0.011,-0.058,101.0,105.0,99.0,13.4,1505.3,325.6,-0.7,1.8,2469.948,13.33,0.034,288.4
2019-11-01T05:57:01,42.805,6.029,-0.006,0.012,-0.017,102.0,104.0,99.0,13.3,1505.3,324.5,-0.7,1.9,2469.953,13.33,0.013,333.4
2019-11-01T06:00:02,42.805,6.029,-0.005,0.005,-0.001,99.0,103.0,99.0,13.4,1505.3,324.8,-0.8,1.8,2469.948,13.33,0.007,315.0
2019-11-01T06:03:03,42.805,6.029,-0.008,0.008,0.008,101.0,103.0,99.0,13.4,1505.3,327.6,-0.8,1.8,2469.918,13.33,0.011,315.0
2019-11-01T06:06:04,42.805,6.029,-0.012,0.024,-0.012,101.0,105.0,98.0,13.4,1505.3,323.9,-0.7,1.8,2469.946,13.33,0.026,333.4
2019-11-01T06:09:05,42.805,6.029,-0.057,0.01,-0.061,100.0,104.0,99.0,13.4,1505.3,323.1,-0.7,1.9,2469.943,13.33,0.057,279.9
2019-11-01T06:12:06,42.805,6.029,-0.031,0.016,-0.033,101.0,105.0,98.0,13.4,1505.3,326.7,-0.6,1.8,2469.975,13.33,0.034,297.3
2019-11-01T06:15:07,42.805,6.029,-0.015,0.038,0.011,101.0,104.0,99.0,13.4,1505.3,324.1,-0.7,1.8,2469.953,13.33,0.04,338.5
2019-11-01T06:18:08,42.805,6.029,-0.003,0.006,-0.009,100.0,105.0,103.0,13.4,1505.3,324.7,-0.7,1.8,2469.974,13.33,0.006,333.4
2019-11-01T06:21:09,42.805,6.029,-0.008,0.037,-0.014,101.0,105.0,98.0,13.4,1505.3,324.9,-0.7,1.8,2469.987,13.33,0.037,347.8
2019-11-01T06:24:10,42.805,6.029,-0.049,0.006,-0.061,101.0,107.0,98.0,13.4,1505.3,326.4,-0.7,1.8,2469.97,13.33,0.049,277.0
2019-11-01T06:27:11,42.805,6.029,-0.031,0.037,0.008,101.0,106.0,98.0,13.4,1505.3,327.8,-0.7,1.8,2469.972,13.33,0.048,320.0
2019-11-01T06:30:12,42.805,6.029,-0.023,0.008,-0.016,101.0,105.0,99.0,13.4,1505.3,322.9,-0.7,1.8,2469.945,13.33,0.024,289.2
2019-11-01T06:33:13,42.805,6.029,-0.045,-0.005,-0.06,102.0,105.0,97.0,13.4,1505.3,325.5,-0.7,1.9,2469.995,13.33,0.045,263.7
